Jamaica, NY

12:31 AM EST on February 21, 2017 (GMT -0500)
Kennedy International

Weather History for KJFK - March, 2014

Change the Weather History Date:

Monday, March 3, 2014

  Actual Average Record
Temperature  
Mean Temperature 27 °F 38 °F  
Max Temperature 35 °F 45 °F 63 °F (1991)
Min Temperature 18 °F 31 °F 12 °F (1950)
Degree Days  
Heating Degree Days 38 27  
Month to date heating degree days 104 81  
Since 1 July heating degree days 3811 3592  
Cooling Degree Days 0 0  
Month to date cooling degree days 0 0  
Year to date cooling degree days 0 0  
Moisture  
Dew Point 7 °F    
Average Humidity 60    
Maximum Humidity 81    
Minimum Humidity 39    
Precipitation  
Precipitation 0.04 in 0.11 in 1.04 in (1991)
Month to date precipitation 0.04 0.33  
Year to date precipitation 7.64 6.08  
Snow  
Snow 0.60 in 0.20 in 7.00 in (1960)
Month to date snowfall 0.6 0.6  
Since 1 July snowfall 45.5 20.1  
Snow Depth 1.00 in    
Sea Level Pressure  
Sea Level Pressure 30.18 in    
Wind  
Wind Speed 14 mph (North)    
Max Wind Speed 23 mph    
Max Gust Speed 26 mph    
Visibility 8 miles    
Events Snow    
T = Trace of Precipitation, MM = Missing Value Source: NWS Daily Summary

Daily Weather History Graph

Daily Weather History Graph

Search for Another Location

Airport or City:

Trip Planner

Search our weather history database for the weather conditions in past years. The results will help you decide how hot, cold, wet, or windy it might be!

Date:

Astronomy

Mar. 03, 2014 Rise Set
Actual Time 6:25 AM EST 5:48 PM EST
Civil Twilight 5:58 AM EST 6:16 PM EST
Nautical Twilight 5:26 AM EST 6:47 PM EST
Astronomical Twilight 4:55 AM EST 7:19 PM EST
Moon 7:31 AM EST (3/3) 8:49 PM EST (3/3)
Length of Visible Light 12h 17m
Length of Day
11h 22m
Waxing Crescent, 8% of the Moon is Illuminated
Mar 3
Waxing Crescent
Mar 8
First Quarter
Mar 16
Full
Mar 23
Last Quarter
Mar 30
New

Hourly Weather History & Observations

Time (EST) Temp. Windchill Dew Point Humidity Pressure Visibility Wind Dir Wind Speed Gust Speed Precip Events Conditions
12:51 AM 33.1 °F 22.6 °F 15.1 °F 48% 30.02 in 10.0 mi NNW 16.1 mph - N/A   Overcast
1:51 AM 30.9 °F 20.2 °F 12.9 °F 47% 30.03 in 10.0 mi North 15.0 mph - N/A   Overcast
2:51 AM 28.0 °F 15.3 °F 14.0 °F 56% 30.03 in 7.0 mi North 18.4 mph 26.5 mph 0.00 in Snow Light Snow
3:12 AM 26.6 °F 13.8 °F 17.6 °F 69% 30.04 in 2.5 mi NNW 17.3 mph 25.3 mph 0.00 in Snow Light Snow
3:51 AM 25.0 °F 11.7 °F 19.0 °F 78% 30.06 in 2.5 mi North 17.3 mph - 0.00 in Snow Light Snow
4:51 AM 23.0 °F 9.6 °F 18.0 °F 81% 30.08 in 2.5 mi North 16.1 mph - 0.02 in Snow Light Snow
5:45 AM 21.2 °F 6.8 °F 14.0 °F 74% 30.10 in 3.0 mi North 17.3 mph 25.3 mph 0.00 in Snow Light Snow
5:51 AM 21.9 °F 8.2 °F 15.1 °F 75% 30.10 in 3.0 mi North 16.1 mph - 0.00 in Snow Light Snow
6:16 AM 21.2 °F 7.3 °F 15.8 °F 80% 30.12 in 1.5 mi North 16.1 mph - 0.00 in Snow Light Snow
6:51 AM 21.0 °F 11.4 °F 14.0 °F 74% 30.13 in 3.0 mi North 8.1 mph - 0.01 in Snow Light Snow
6:58 AM 21.2 °F 11.7 °F 14.0 °F 74% 30.13 in 8.0 mi North 8.1 mph - 0.01 in Snow Light Snow
7:51 AM 21.9 °F 8.7 °F 6.1 °F 51% 30.16 in 10.0 mi North 15.0 mph - 0.01 in   Overcast
8:51 AM 21.9 °F 7.3 °F 5.0 °F 48% 30.17 in 10.0 mi North 18.4 mph - N/A   Overcast
9:51 AM 21.9 °F 9.8 °F 3.0 °F 44% 30.19 in 10.0 mi North 12.7 mph - N/A   Overcast
10:51 AM 21.9 °F 9.8 °F 5.0 °F 48% 30.19 in 10.0 mi North 12.7 mph - N/A   Overcast
11:51 AM 21.9 °F 9.2 °F 3.9 °F 46% 30.19 in 10.0 mi NNW 13.8 mph - N/A   Overcast
12:51 PM 21.9 °F 8.2 °F -0.0 °F 38% 30.19 in 10.0 mi NNW 16.1 mph - N/A   Overcast
1:51 PM 21.9 °F 8.7 °F 1.0 °F 40% 30.18 in 10.0 mi North 15.0 mph 21.9 mph N/A   Overcast
2:51 PM 21.9 °F 8.7 °F 1.0 °F 40% 30.21 in 10.0 mi NNW 15.0 mph - N/A   Mostly Cloudy
3:51 PM 21.9 °F 8.2 °F -0.0 °F 38% 30.21 in 10.0 mi North 16.1 mph - N/A   Mostly Cloudy
4:51 PM 21.9 °F 9.8 °F 1.0 °F 40% 30.23 in 10.0 mi North 12.7 mph - N/A   Mostly Cloudy
5:51 PM 21.9 °F 10.4 °F 1.9 °F 42% 30.26 in 10.0 mi North 11.5 mph - N/A   Mostly Cloudy
6:51 PM 21.0 °F 9.9 °F 1.9 °F 44% 30.28 in 10.0 mi North 10.4 mph - N/A   Mostly Cloudy
7:51 PM 21.0 °F 9.3 °F 1.0 °F 42% 30.30 in 10.0 mi North 11.5 mph - N/A   Mostly Cloudy
8:51 PM 19.9 °F 7.9 °F -0.9 °F 40% 30.32 in 10.0 mi North 11.5 mph - N/A   Scattered Clouds
9:51 PM 19.0 °F 6.8 °F -2.9 °F 38% 30.33 in 10.0 mi North 11.5 mph - N/A   Partly Cloudy
10:51 PM 19.0 °F 9.0 °F -2.9 °F 38% 30.35 in 10.0 mi North 8.1 mph - N/A   Clear
11:51 PM 18.0 °F 3.6 °F -4.0 °F 38% 30.34 in 10.0 mi North 15.0 mph - N/A   Clear